Regional Weather Roundup
Issued by NWS

Home | Current Version | Previous Version | Text Only | Print | Product List | Glossary Off
Versions: 1 2 3 4 5 6 7 8 9 10 11 12 13 14 15 16 17 18 19 20 21 22 23 24 25 26 27 28 29 30 31 32 33 34 35 36 37 38 39 40 41 42 43 44 45 46 47 48 49 50

000
ASUS43 KIND 292309
RWRIN

WEATHER ROUNDUP FOR INDIANA
NATIONAL WEATHER SERVICE INDIANAPOLIS IN
600 PM EST THU JAN 29 2015

NOTE: "FAIR" INDICATES FEW OR NO CLOUDS BELOW 12,000 FEET WITH NO
SIGNIFICANT WEATHER AND/OR OBSTRUCTIONS TO VISIBILITY.

* - STATION DOES NOT REPORT WEATHER SUCH AS PRECIPITATION OR FOG.

+ - STATION NOT QUALITY CONTROLLED BY THE NATIONAL WEATHER SERVICE.
    USE DATA WITH CAUTION...ESPECIALLY DEWPOINT AND RELATIVE
    HUMIDITY OBSERVATIONS.

INZ001>003-010>013-019-020-300000-
NORTHWEST INDIANA

CITY           SKY/WX    TMP DP  RH WIND       PRES   REMARKS
GARY /AIRPORT/ CLOUDY    37  23  56 NW14G29   30.10R
KNOX *+        CLOUDY    32  21  64 NW15G22   30.06R WCI  22
LA PORTE +     MIX PCPN  34  31  87 NW14G20   30.06R WCI  25
MICHIGAN CITY+ LGT RAIN  34  27  75 NW16G24   30.07R WCI  23
MONTICELLO +   CLOUDY    32  30  92 NW12      30.09R FOG     WCI  23
RENSSELAER +   CLOUDY    34  32  93 W7        30.11R WCI  28
VALPARAISO     CLOUDY    33  27  78 NW12      30.08R WCI  24

$$

LMZ046-743>745-300000-
SOUTHERN LAKE MICHIGAN

STATION/POSITION TIME  TEMP WIND        PRES
                       AIR  DIR/SP/G
                 (UTC) (F)  (DEG/KT/KT) (MB)
MICHIGAN CITY    2300   34  290/ 20/ 25   N/A

$$

INZ004-005-014>016-021>024-300000-
NORTH CENTRAL INDIANA

CITY           SKY/WX    TMP DP  RH WIND       PRES   REMARKS
ELKHART        LGT RAIN  32  28  86 NW14G20   30.02R WCI  22
GOSHEN         FRZ RAIN  33  30  88 NW15      30.01R FOG     WCI  23
LOGANSPORT +   MIX PCPN  32  30  93 NW9       30.09R WCI  24
PERU/GRISSOM   FRZ DRZL  32  30  92 NW14      30.06R FOG     WCI  22
ROCHESTER +    CLOUDY    34  34 100 NW12      30.05R FOG     WCI  25
SOUTH BEND     CLOUDY    34  29  82 NW15      30.04R WCI  24
WARSAW +       LGT RAIN  32  32 100 NW14G22   30.01R WCI  22

$$

INZ006>009-017-018-025>027-300000-
NORTHEAST INDIANA

CITY           SKY/WX    TMP DP  RH WIND       PRES   REMARKS
ANGOLA *+      CLOUDY    30  28  93 NW9       29.95R WCI  22
AUBURN +       CLOUDY    32  28  86 NW15G24   29.98R WCI  22
FORT WAYNE     LGT SNOW  32  30  92 W14       30.01R FOG     WCI  22
HUNTINGTON +   CLOUDY    32  28  85 NW10G16   30.01R FOG     WCI  24

$$

INZ028-029-035-036-043>045-051>053-300000-
WEST CENTRAL INDIANA

CITY           SKY/WX    TMP DP  RH WIND       PRES   REMARKS
CRAWFORDSVL +  CLOUDY    31  27  85 NW13      30.12R FOG     WCI  21
GREENCASTLE +  CLOUDY    32  28  86 NW9G18    30.12R HAZE    WCI  24
LAFAYETTE      CLOUDY    32  29  88 NW10      30.11R FOG     WCI  24
TERRE HAUTE    CLOUDY    34  30  85 NW10      30.16R FOG     WCI  26

$$

INZ030>032-037>040-046>048-054>057-064-065-300000-
CENTRAL INDIANA

CITY           SKY/WX    TMP DP  RH WIND       PRES   REMARKS
CP ATTERBURY + CLOUDY    34  30  86 NW12G22   30.10R WCI  25
COLUMBUS       CLOUDY    34  28  80 NW16      30.10R WCI  23
GREENWOOD *+   CLOUDY    34  27  75 NW12G23   30.09R WCI  25
INDIANAPOLIS   CLOUDY    31  27  85 NW15G25   30.10R WCI  20
-EAGLE CREEK   CLOUDY    33  27  78 NW16G29   30.09R WCI  23
KOKOMO *+      CLOUDY    32  28  86 NW15G24   30.06R WCI  22
MARION +       CLOUDY    32  31  96 NW16G22   30.05R FOG     WCI  21
MT COMFORT *+  CLOUDY    32  32 100 NW18G24   30.07R WCI  20
SHELBYVILLE    CLOUDY    35  29  78 NW16G23   30.07R WCI  25
ZIONSVILLE +   CLOUDY    32  28  85 NW16G23   30.08R FOG     WCI  22

$$

INZ033-034-041-042-049-050-058-059-300000-
EAST CENTRAL INDIANA

CITY           SKY/WX    TMP DP  RH WIND       PRES   REMARKS
MUNCIE         CLOUDY    32  29  88 NW17G28   30.04R FOG     WCI  21

$$

INZ060-061-067>069-081>083-085>088-300000-
SOUTHWEST INDIANA

CITY           SKY/WX    TMP DP  RH WIND       PRES   REMARKS
EVANSVILLE     CLOUDY    40  31  70 NW8G22    30.21R
HUNTINGBURG *+ CLOUDY    37  28  70 NW17      30.18R
WASHINGTON +   CLOUDY    36  30  81 NW18      30.17R

$$

INZ062-063-066-070>080-084-089>092-300000-
SOUTH CENTRAL AND SOUTHEAST INDIANA

CITY           SKY/WX    TMP DP  RH WIND       PRES   REMARKS
BLOOMINGTON    CLOUDY    35  28  75 NW10G20   30.12R WCI  27
NORTH VERNON + DRIZZLE   36  36 100 W10G16    30.09R
SEYMOUR +      CLOUDY    37  30  75 W17G23    30.11R

$$




USA.gov is the U.S. government's official web portal to all federal, state and local government web resources and services.